{"data":{"norad_id":54798,"intl_designator":"2022-175AS","name":"STARLINK-5420","alt_names":[],"object_type":"PAYLOAD","status":"ACTIVE","operator":null,"country":"US","launch_date":"2022-12-17","launch_site_code":"AFETR","launch_vehicle":null,"mission":null,"orbit_class":"UNKNOWN","rcs_meters":null,"size_class":null,"mass_kg":null,"dimensions":null,"purposes":["comms"],"wikipedia_slug":null,"has_3d_model":false,"image_url":null,"decayed_at":null,"tle_current":{"epoch":"2026-09-20T14:37:40.026720Z","epoch_age_seconds":83732,"freshness":"FRESH","line1":"1 54798U 22175AS  26263.60949105  .00000229  00000+0  17456-4 0  9992","line2":"2 54798  53.1602 217.3155 0001090  87.9747 272.1381 15.35399597209784","mean_motion":15.35399597,"eccentricity":0.000109,"inclination_deg":53.1602,"raan_deg":217.3155,"arg_perigee_deg":87.9747,"mean_anomaly_deg":272.1381,"bstar":1.7456e-5,"rev_number":20978,"period_min":93.786660020857,"perigee_km":458.98851132088,"apogee_km":460.47916716384,"semimajor_km":6837.8708392424,"source":"CELESTRAK","updated_at":"2026-09-21T09:00:33.128462Z"}}}